EXS30LV EGGP-LEVX

Flight info

Callsign EXS30LV
Flight time 2h 11m
Altitude 38000
Route REXAM DCT MONTY DCT NAKID/N0461F350 DCT XIDAN DCT KORUL DCT STG
Aircraft B738/M-VGDW/C

Departure

Time 2026-04-17 05:03
Airport Liverpool John Lennon Airport (EGGP)

Arrival

Time 2026-04-17 07:15
Airport Vigo Airport (LEVX)
Time Latitude Longitude Altitude Speed Heading
2026-04-17 04:52 53.33555 -2.85720 88 ft 0 kts 176°
2026-04-17 04:55 53.33617 -2.85682 88 ft 0 kts 257°
2026-04-17 04:59 53.33613 -2.85713 91 ft 6 kts 255°
2026-04-17 04:59 53.33600 -2.85798 90 ft 9 kts 262°
2026-04-17 04:59 53.33594 -2.85912 91 ft 11 kts 265°
2026-04-17 04:59 53.33591 -2.86046 88 ft 12 kts 266°
2026-04-17 05:00 53.33584 -2.86196 88 ft 12 kts 265°
2026-04-17 05:00 53.33554 -2.86296 88 ft 10 kts 217°
2026-04-17 05:00 53.33490 -2.86318 88 ft 7 kts 197°
2026-04-17 05:00 53.33464 -2.86391 88 ft 9 kts 255°
2026-04-17 05:01 53.33455 -2.86502 88 ft 11 kts 263°
2026-04-17 05:01 53.33451 -2.86634 91 ft 12 kts 261°
2026-04-17 05:01 53.33394 -2.86727 90 ft 10 kts 203°
2026-04-17 05:01 53.33329 -2.86705 89 ft 10 kts 146°
2026-04-17 05:02 53.33287 -2.86619 89 ft 9 kts 103°
2026-04-17 05:02 53.33288 -2.86585 88 ft 0 kts 84°
2026-04-17 05:02 53.33291 -2.86525 85 ft 25 kts 85°
2026-04-17 05:03 53.33323 -2.85797 90 ft 100 kts 86°
2026-04-17 05:03 53.33383 -2.84262 111 ft 160 kts 89°
2026-04-17 05:03 53.33473 -2.82342 776 ft 169 kts 88°
2026-04-17 05:03 53.33602 -2.80278 1403 ft 189 kts 85°
2026-04-17 05:04 53.33518 -2.78060 2010 ft 195 kts 116°
2026-04-17 05:04 53.32773 -2.76209 2599 ft 191 kts 151°
2026-04-17 05:04 53.31607 -2.75473 3324 ft 172 kts 195°
2026-04-17 05:04 53.30611 -2.76318 3973 ft 163 kts 236°
2026-04-17 05:05 53.29924 -2.77839 4650 ft 168 kts 240°
2026-04-17 05:05 53.29234 -2.79617 4630 ft 202 kts 237°
2026-04-17 05:05 53.28364 -2.81565 4584 ft 212 kts 234°
2026-04-17 05:05 53.27401 -2.83481 4569 ft 213 kts 231°
2026-04-17 05:06 53.26398 -2.85306 4565 ft 212 kts 229°
2026-04-17 05:06 53.25366 -2.87062 4564 ft 212 kts 228°
2026-04-17 05:06 53.24325 -2.88761 4584 ft 211 kts 227°
2026-04-17 05:06 53.23264 -2.90459 4599 ft 211 kts 227°
2026-04-17 05:07 53.22195 -2.92151 4593 ft 212 kts 227°
2026-04-17 05:07 53.21123 -2.93841 4594 ft 213 kts 227°
2026-04-17 05:07 53.20038 -2.95531 4578 ft 214 kts 226°
2026-04-17 05:07 53.18947 -2.97214 4587 ft 214 kts 226°
2026-04-17 05:08 53.17852 -2.98899 4587 ft 213 kts 226°
2026-04-17 05:08 53.16758 -3.00579 4576 ft 213 kts 226°
2026-04-17 05:08 53.15668 -3.02252 4589 ft 213 kts 226°
2026-04-17 05:08 53.14580 -3.03920 4593 ft 214 kts 226°
2026-04-17 05:09 53.13440 -3.05672 4617 ft 230 kts 226°
2026-04-17 05:09 53.12248 -3.07502 4598 ft 236 kts 225°
2026-04-17 05:09 53.11046 -3.09339 5282 ft 238 kts 226°
2026-04-17 05:09 53.09823 -3.11209 6167 ft 240 kts 226°
2026-04-17 05:10 53.08585 -3.13101 6941 ft 244 kts 226°
2026-04-17 05:10 53.07296 -3.14970 7716 ft 249 kts 217°
2026-04-17 05:10 53.05665 -3.16085 8487 ft 261 kts 197°
2026-04-17 05:10 53.03822 -3.16365 9283 ft 269 kts 189°
2026-04-17 05:11 53.01932 -3.16492 10026 ft 274 kts 189°
2026-04-17 05:11 52.99988 -3.16613 10494 ft 289 kts 188°
2026-04-17 05:11 52.97883 -3.16760 10667 ft 314 kts 188°
2026-04-17 05:11 52.95624 -3.16927 10833 ft 336 kts 188°
2026-04-17 05:12 52.93220 -3.17111 11046 ft 355 kts 188°
2026-04-17 05:12 52.90751 -3.17307 11517 ft 362 kts 188°
2026-04-17 05:12 52.88253 -3.17834 12231 ft 359 kts 198°
2026-04-17 05:12 52.86658 -3.18558 12733 ft 358 kts 201°
2026-04-17 05:13 52.84263 -3.19749 13409 ft 361 kts 201°
2026-04-17 05:13 52.81842 -3.20963 14027 ft 366 kts 201°
2026-04-17 05:13 52.79399 -3.22183 14638 ft 368 kts 201°
2026-04-17 05:13 52.76927 -3.23408 15238 ft 371 kts 201°
2026-04-17 05:14 52.74441 -3.24633 15842 ft 374 kts 201°
2026-04-17 05:14 52.71937 -3.25860 16421 ft 378 kts 201°
2026-04-17 05:14 52.69404 -3.27096 16995 ft 380 kts 201°
2026-04-17 05:14 52.66853 -3.28337 17579 ft 383 kts 201°
2026-04-17 05:15 52.64280 -3.29585 18132 ft 387 kts 201°
2026-04-17 05:15 52.61686 -3.30842 18638 ft 390 kts 201°
2026-04-17 05:15 52.59074 -3.32105 19133 ft 392 kts 201°
2026-04-17 05:15 52.56445 -3.33375 19618 ft 395 kts 201°
2026-04-17 05:16 52.53837 -3.34633 20074 ft 397 kts 201°
2026-04-17 05:16 52.51172 -3.35916 20537 ft 400 kts 201°
2026-04-17 05:16 52.48495 -3.37204 21010 ft 402 kts 201°
2026-04-17 05:16 52.45801 -3.38499 21471 ft 404 kts 202°
2026-04-17 05:17 52.43083 -3.39803 21905 ft 407 kts 202°
2026-04-17 05:17 52.40346 -3.41115 22330 ft 409 kts 202°
2026-04-17 05:17 52.37607 -3.42426 22786 ft 412 kts 202°
2026-04-17 05:17 52.34848 -3.43745 23213 ft 414 kts 202°
2026-04-17 05:18 52.32076 -3.45069 23615 ft 416 kts 202°
2026-04-17 05:18 52.29323 -3.46382 23959 ft 418 kts 202°
2026-04-17 05:18 52.26522 -3.47714 24316 ft 419 kts 202°
2026-04-17 05:18 52.23710 -3.49051 24664 ft 421 kts 202°
2026-04-17 05:19 52.20888 -3.50391 24986 ft 422 kts 202°
2026-04-17 05:19 52.18062 -3.51732 25304 ft 424 kts 202°
2026-04-17 05:19 52.15222 -3.53078 25622 ft 426 kts 202°
2026-04-17 05:19 52.12374 -3.54425 25921 ft 427 kts 202°
2026-04-17 05:20 52.09542 -3.55763 26223 ft 429 kts 202°
2026-04-17 05:20 52.06671 -3.57117 26526 ft 431 kts 202°
2026-04-17 05:20 52.03786 -3.58477 26822 ft 432 kts 202°
2026-04-17 05:20 52.00886 -3.59841 27114 ft 433 kts 202°
2026-04-17 05:21 51.97990 -3.61200 27517 ft 432 kts 202°
2026-04-17 05:21 51.95113 -3.62547 27980 ft 429 kts 203°
2026-04-17 05:21 51.92247 -3.63888 28381 ft 428 kts 203°
2026-04-17 05:21 51.89383 -3.65227 28767 ft 428 kts 203°
2026-04-17 05:22 51.86521 -3.66565 29160 ft 427 kts 203°
2026-04-17 05:22 51.83668 -3.67897 29583 ft 426 kts 203°
2026-04-17 05:22 51.80859 -3.69206 29990 ft 424 kts 203°
2026-04-17 05:22 51.78023 -3.70526 30340 ft 423 kts 203°
2026-04-17 05:23 51.75196 -3.71840 30643 ft 423 kts 203°
2026-04-17 05:23 51.72369 -3.73154 30958 ft 422 kts 203°
2026-04-17 05:23 51.69552 -3.74460 31309 ft 420 kts 203°
2026-04-17 05:23 51.66749 -3.75757 31656 ft 419 kts 203°
2026-04-17 05:24 51.63931 -3.77061 31957 ft 418 kts 204°
2026-04-17 05:24 51.61135 -3.78354 32236 ft 418 kts 204°
2026-04-17 05:24 51.58377 -3.79626 32561 ft 417 kts 204°
2026-04-17 05:24 51.55591 -3.80909 32907 ft 415 kts 204°
2026-04-17 05:25 51.52816 -3.82185 33214 ft 414 kts 204°
2026-04-17 05:25 51.50049 -3.83458 33462 ft 414 kts 204°
2026-04-17 05:25 51.47283 -3.84729 33730 ft 413 kts 204°
2026-04-17 05:25 51.44514 -3.85998 34036 ft 412 kts 204°
2026-04-17 05:26 51.41762 -3.87258 34263 ft 411 kts 204°
2026-04-17 05:26 51.39004 -3.88520 34420 ft 413 kts 204°
2026-04-17 05:26 51.36236 -3.89787 34586 ft 414 kts 204°
2026-04-17 05:26 51.33503 -3.91034 34786 ft 413 kts 204°
2026-04-17 05:27 51.30734 -3.92295 34984 ft 413 kts 204°
2026-04-17 05:27 51.27963 -3.93556 35133 ft 414 kts 204°
2026-04-17 05:27 51.25207 -3.94808 35431 ft 408 kts 202°
2026-04-17 05:27 51.22500 -3.96030 35912 ft 402 kts 202°
2026-04-17 05:28 51.19803 -3.97252 36014 ft 404 kts 202°
2026-04-17 05:28 51.17088 -3.98485 36061 ft 407 kts 202°
2026-04-17 05:28 51.14360 -3.99722 36204 ft 407 kts 202°
2026-04-17 05:28 51.11632 -4.00955 36393 ft 406 kts 202°
2026-04-17 05:29 51.08948 -4.02166 36575 ft 406 kts 202°
2026-04-17 05:29 51.06224 -4.03393 36726 ft 407 kts 202°
2026-04-17 05:29 51.03498 -4.04620 36894 ft 407 kts 202°
2026-04-17 05:29 51.00773 -4.05845 37043 ft 407 kts 202°
2026-04-17 05:30 50.98046 -4.07069 37159 ft 408 kts 202°
2026-04-17 05:30 50.95308 -4.08298 37260 ft 409 kts 201°
2026-04-17 05:30 50.92557 -4.09530 37404 ft 409 kts 202°
2026-04-17 05:30 50.89813 -4.10757 37558 ft 409 kts 201°
2026-04-17 05:31 50.87075 -4.11979 37714 ft 409 kts 201°
2026-04-17 05:31 50.84376 -4.13183 37874 ft 408 kts 201°
2026-04-17 05:31 50.81644 -4.14400 38047 ft 407 kts 201°
2026-04-17 05:31 50.78923 -4.15610 38071 ft 406 kts 201°
2026-04-17 05:32 50.73501 -4.18018 38091 ft 403 kts 201°
2026-04-17 05:32 50.68093 -4.20417 38090 ft 404 kts 201°
2026-04-17 05:33 50.62712 -4.22798 38099 ft 404 kts 201°
2026-04-17 05:33 50.57292 -4.25189 38113 ft 405 kts 201°
2026-04-17 05:34 50.51860 -4.27580 38101 ft 405 kts 201°
2026-04-17 05:34 50.46426 -4.29965 38099 ft 406 kts 201°
2026-04-17 05:35 50.40979 -4.32351 38099 ft 406 kts 201°
2026-04-17 05:35 50.35565 -4.34716 38102 ft 406 kts 201°
2026-04-17 05:36 50.30112 -4.37093 38111 ft 407 kts 201°
2026-04-17 05:36 50.24655 -4.39466 38112 ft 407 kts 201°
2026-04-17 05:37 50.19189 -4.41838 38111 ft 407 kts 201°
2026-04-17 05:37 50.13730 -4.44200 38113 ft 407 kts 201°
2026-04-17 05:38 50.08255 -4.46564 38110 ft 408 kts 201°
2026-04-17 05:38 50.02825 -4.48903 38111 ft 408 kts 201°
2026-04-17 05:39 49.97350 -4.51256 38111 ft 408 kts 201°
2026-04-17 05:39 49.91875 -4.53604 38113 ft 408 kts 201°
2026-04-17 05:40 49.86394 -4.55949 38111 ft 408 kts 201°
2026-04-17 05:40 49.80915 -4.58288 38118 ft 408 kts 201°
2026-04-17 05:41 49.75430 -4.60624 38114 ft 409 kts 201°
2026-04-17 05:41 49.70032 -4.63134 38109 ft 404 kts 207°
2026-04-17 05:42 49.64819 -4.66437 38115 ft 404 kts 207°
2026-04-17 05:42 49.59620 -4.69755 38121 ft 405 kts 207°
2026-04-17 05:43 49.54408 -4.73053 38124 ft 405 kts 207°
2026-04-17 05:43 49.49180 -4.76338 38121 ft 406 kts 207°
2026-04-17 05:44 49.43983 -4.79590 38123 ft 406 kts 207°
2026-04-17 05:44 49.38733 -4.82868 38125 ft 406 kts 207°
2026-04-17 05:45 49.33489 -4.86134 38122 ft 407 kts 207°
2026-04-17 05:45 49.28258 -4.89384 38128 ft 407 kts 207°
2026-04-17 05:46 49.22996 -4.92646 38131 ft 407 kts 207°
2026-04-17 05:46 49.17738 -4.95898 38126 ft 407 kts 207°
2026-04-17 05:47 49.12478 -4.99144 38130 ft 407 kts 207°
2026-04-17 05:47 49.07245 -5.02366 38132 ft 408 kts 207°
2026-04-17 05:48 49.01971 -5.05605 38136 ft 408 kts 207°
2026-04-17 05:48 48.96706 -5.08832 38129 ft 408 kts 207°
2026-04-17 05:49 48.91438 -5.12054 38137 ft 408 kts 207°
2026-04-17 05:49 48.86191 -5.15255 38139 ft 408 kts 207°
2026-04-17 05:50 48.80914 -5.18467 38138 ft 408 kts 207°
2026-04-17 05:50 48.75632 -5.21675 38140 ft 409 kts 206°
2026-04-17 05:51 48.70342 -5.24881 38146 ft 409 kts 206°
2026-04-17 05:51 48.65046 -5.28082 38145 ft 409 kts 206°
2026-04-17 05:52 48.59785 -5.31256 38147 ft 409 kts 206°
2026-04-17 05:52 48.54493 -5.34441 38146 ft 410 kts 206°
2026-04-17 05:53 48.49189 -5.37626 38149 ft 410 kts 206°
2026-04-17 05:53 48.43865 -5.40817 38150 ft 411 kts 206°
2026-04-17 05:54 48.38532 -5.44005 38154 ft 412 kts 206°
2026-04-17 05:54 48.33225 -5.47170 38155 ft 413 kts 206°
2026-04-17 05:55 48.27869 -5.50358 38153 ft 414 kts 206°
2026-04-17 05:55 48.22500 -5.53545 38158 ft 414 kts 206°
2026-04-17 05:56 48.17149 -5.56715 38154 ft 415 kts 206°
2026-04-17 05:56 48.11772 -5.59893 38156 ft 415 kts 206°
2026-04-17 05:57 48.06383 -5.63071 38160 ft 415 kts 206°
2026-04-17 05:57 48.01033 -5.66219 38159 ft 416 kts 206°
2026-04-17 05:58 47.95648 -5.69381 38159 ft 415 kts 205°
2026-04-17 05:59 47.87570 -5.74110 38162 ft 415 kts 205°
2026-04-17 05:59 47.82187 -5.77253 38161 ft 415 kts 205°
2026-04-17 06:00 47.76845 -5.80365 38164 ft 415 kts 205°
2026-04-17 06:00 47.71456 -5.83497 38165 ft 415 kts 205°
2026-04-17 06:01 47.66062 -5.86625 38164 ft 415 kts 205°
2026-04-17 06:01 47.60672 -5.89745 38171 ft 415 kts 205°
2026-04-17 06:02 47.55305 -5.92843 38169 ft 416 kts 205°
2026-04-17 06:02 47.49901 -5.95957 38170 ft 416 kts 205°
2026-04-17 06:03 47.45416 -5.98535 38171 ft 416 kts 205°
2026-04-17 06:03 47.39133 -6.02140 38176 ft 417 kts 205°
2026-04-17 06:04 47.34596 -6.04737 38167 ft 417 kts 205°
2026-04-17 06:04 47.29211 -6.07814 38173 ft 418 kts 205°
2026-04-17 06:05 47.23790 -6.10904 38176 ft 418 kts 205°
2026-04-17 06:05 47.18358 -6.13994 38169 ft 418 kts 205°
2026-04-17 06:06 47.12923 -6.17080 38178 ft 419 kts 204°
2026-04-17 06:06 47.07482 -6.20162 38176 ft 419 kts 204°
2026-04-17 06:07 47.01929 -6.22799 38184 ft 422 kts 197°
2026-04-17 06:07 46.96191 -6.24658 38182 ft 422 kts 196°
2026-04-17 06:08 46.90470 -6.26490 38180 ft 422 kts 196°
2026-04-17 06:08 46.84726 -6.28355 38187 ft 422 kts 196°
2026-04-17 06:09 46.79008 -6.30225 38187 ft 422 kts 196°
2026-04-17 06:09 46.73280 -6.32098 38181 ft 422 kts 196°
2026-04-17 06:10 46.67551 -6.33969 38179 ft 421 kts 196°
2026-04-17 06:10 46.61827 -6.35834 38182 ft 421 kts 196°
2026-04-17 06:11 46.56098 -6.37696 38193 ft 421 kts 196°
2026-04-17 06:11 46.50410 -6.39540 38176 ft 421 kts 196°
2026-04-17 06:12 46.44688 -6.41392 38190 ft 421 kts 196°
2026-04-17 06:12 46.38963 -6.43241 38191 ft 421 kts 196°
2026-04-17 06:13 46.33275 -6.45073 38190 ft 421 kts 196°
2026-04-17 06:13 46.27554 -6.46913 38188 ft 421 kts 196°
2026-04-17 06:14 46.21824 -6.48751 38191 ft 421 kts 196°
2026-04-17 06:14 46.16101 -6.50583 38195 ft 421 kts 196°
2026-04-17 06:15 46.10364 -6.52416 38192 ft 421 kts 196°
2026-04-17 06:15 46.04666 -6.54233 38194 ft 422 kts 196°
2026-04-17 06:16 45.98938 -6.56055 38195 ft 422 kts 196°
2026-04-17 06:16 45.93198 -6.57877 38195 ft 422 kts 196°
2026-04-17 06:17 45.87466 -6.59692 38195 ft 421 kts 196°
2026-04-17 06:17 45.81740 -6.61502 38194 ft 421 kts 196°
2026-04-17 06:18 45.76013 -6.63308 38195 ft 421 kts 196°
2026-04-17 06:18 45.70333 -6.65096 38197 ft 421 kts 196°
2026-04-17 06:19 45.64610 -6.66894 38193 ft 420 kts 196°
2026-04-17 06:19 45.58887 -6.68688 38193 ft 420 kts 196°
2026-04-17 06:20 45.53183 -6.70472 38193 ft 419 kts 196°
2026-04-17 06:20 45.47520 -6.72240 38196 ft 419 kts 196°
2026-04-17 06:21 45.41820 -6.74016 38197 ft 418 kts 196°
2026-04-17 06:21 45.36131 -6.75784 38194 ft 418 kts 196°
2026-04-17 06:22 45.30434 -6.77552 38199 ft 418 kts 196°
2026-04-17 06:22 45.24785 -6.79301 38198 ft 418 kts 196°
2026-04-17 06:23 45.19097 -6.81059 38193 ft 418 kts 196°
2026-04-17 06:23 45.13402 -6.82815 38194 ft 418 kts 196°
2026-04-17 06:24 45.07750 -6.84554 38193 ft 418 kts 196°
2026-04-17 06:24 45.02063 -6.86301 38200 ft 418 kts 196°
2026-04-17 06:25 44.96368 -6.88046 38197 ft 418 kts 196°
2026-04-17 06:25 44.90704 -6.89780 38202 ft 418 kts 196°
2026-04-17 06:26 44.85028 -6.91581 38190 ft 417 kts 200°
2026-04-17 06:26 44.79792 -6.94891 38208 ft 411 kts 212°
2026-04-17 06:27 44.74858 -6.98976 38195 ft 411 kts 213°
2026-04-17 06:27 44.69915 -7.03055 38194 ft 412 kts 212°
2026-04-17 06:28 44.64987 -7.07084 38196 ft 412 kts 212°
2026-04-17 06:28 44.59998 -7.11140 38193 ft 413 kts 212°
2026-04-17 06:29 44.55050 -7.15151 38192 ft 413 kts 212°
2026-04-17 06:29 44.50061 -7.19186 38193 ft 413 kts 212°
2026-04-17 06:30 44.45071 -7.23214 38194 ft 414 kts 212°
2026-04-17 06:30 44.40110 -7.27211 38198 ft 414 kts 212°
2026-04-17 06:31 44.35119 -7.31225 38195 ft 413 kts 212°
2026-04-17 06:31 44.30130 -7.35229 38194 ft 413 kts 212°
2026-04-17 06:32 44.25141 -7.39225 38192 ft 413 kts 212°
2026-04-17 06:32 44.20159 -7.43207 38198 ft 413 kts 212°
2026-04-17 06:33 44.15173 -7.47186 38191 ft 412 kts 212°
2026-04-17 06:33 44.10190 -7.51153 38192 ft 412 kts 212°
2026-04-17 06:34 44.05243 -7.55085 38083 ft 414 kts 212°
2026-04-17 06:34 44.02718 -7.57090 37579 ft 417 kts 212°
2026-04-17 06:34 44.00204 -7.59083 36995 ft 415 kts 212°
2026-04-17 06:34 43.97703 -7.61062 36447 ft 413 kts 212°
2026-04-17 06:35 43.95203 -7.63040 35828 ft 413 kts 212°
2026-04-17 06:35 43.92705 -7.65014 35191 ft 413 kts 212°
2026-04-17 06:35 43.90206 -7.66988 34563 ft 414 kts 212°
2026-04-17 06:35 43.87702 -7.68963 33862 ft 414 kts 212°
2026-04-17 06:36 43.85222 -7.70918 33136 ft 415 kts 212°
2026-04-17 06:36 43.82706 -7.72899 32450 ft 415 kts 212°
2026-04-17 06:36 43.80187 -7.74881 31720 ft 416 kts 212°
2026-04-17 06:36 43.77666 -7.76862 31004 ft 417 kts 212°
2026-04-17 06:37 43.75138 -7.78847 30271 ft 418 kts 212°
2026-04-17 06:37 43.72599 -7.80839 29394 ft 420 kts 212°
2026-04-17 06:37 43.70057 -7.82829 28570 ft 419 kts 212°
2026-04-17 06:37 43.67519 -7.84816 27910 ft 416 kts 212°
2026-04-17 06:38 43.65044 -7.86749 27310 ft 412 kts 212°
2026-04-17 06:38 43.62565 -7.88685 26760 ft 407 kts 212°
2026-04-17 06:38 43.60109 -7.90600 26168 ft 404 kts 212°
2026-04-17 06:38 43.57676 -7.92497 25608 ft 400 kts 212°
2026-04-17 06:39 43.55261 -7.94378 25057 ft 396 kts 212°
2026-04-17 06:39 43.52865 -7.96243 24505 ft 393 kts 213°
2026-04-17 06:39 43.50491 -7.98090 23952 ft 390 kts 213°
2026-04-17 06:39 43.48149 -7.99909 23350 ft 387 kts 213°
2026-04-17 06:40 43.45815 -8.01721 22761 ft 384 kts 213°
2026-04-17 06:40 43.43498 -8.03518 22203 ft 380 kts 213°
2026-04-17 06:40 43.41203 -8.05296 21678 ft 376 kts 213°
2026-04-17 06:40 43.38928 -8.07057 21121 ft 373 kts 213°
2026-04-17 06:41 43.36679 -8.08796 20595 ft 370 kts 213°
2026-04-17 06:41 43.34464 -8.10509 20065 ft 368 kts 213°
2026-04-17 06:41 43.32238 -8.12228 19556 ft 366 kts 213°
2026-04-17 06:41 43.30026 -8.13935 19016 ft 364 kts 213°
2026-04-17 06:42 43.27818 -8.15638 18506 ft 365 kts 213°
2026-04-17 06:42 43.25598 -8.17349 17905 ft 364 kts 212°
2026-04-17 06:42 43.23378 -8.19060 17336 ft 368 kts 212°
2026-04-17 06:42 43.21130 -8.20790 16789 ft 372 kts 212°
2026-04-17 06:43 43.18902 -8.22503 16234 ft 371 kts 212°
2026-04-17 06:43 43.16662 -8.24221 15700 ft 367 kts 211°
2026-04-17 06:43 43.14434 -8.25928 15146 ft 364 kts 211°
2026-04-17 06:43 43.12228 -8.27618 14626 ft 361 kts 211°
2026-04-17 06:44 43.10037 -8.29296 14096 ft 359 kts 211°
2026-04-17 06:44 43.07863 -8.30959 13498 ft 357 kts 211°
2026-04-17 06:44 43.05732 -8.32589 12947 ft 354 kts 211°
2026-04-17 06:44 43.03586 -8.34229 12401 ft 351 kts 210°
2026-04-17 06:45 43.01460 -8.35852 11887 ft 349 kts 210°
2026-04-17 06:45 42.99347 -8.37464 11370 ft 347 kts 210°
2026-04-17 06:45 42.97274 -8.39045 11201 ft 335 kts 210°
2026-04-17 06:45 42.95274 -8.40567 11040 ft 323 kts 210°
2026-04-17 06:46 42.93339 -8.42033 10897 ft 313 kts 209°
2026-04-17 06:46 42.91338 -8.43061 10743 ft 305 kts 195°
2026-04-17 06:46 42.89296 -8.43680 10605 ft 296 kts 194°
2026-04-17 06:46 42.87311 -8.44249 10472 ft 287 kts 193°
2026-04-17 06:47 42.85378 -8.44803 10349 ft 279 kts 193°
2026-04-17 06:47 42.83530 -8.45340 10224 ft 271 kts 194°
2026-04-17 06:47 42.81706 -8.45876 9989 ft 268 kts 194°
2026-04-17 06:47 42.79885 -8.46416 9704 ft 266 kts 194°
2026-04-17 06:48 42.78079 -8.46954 9415 ft 265 kts 194°
2026-04-17 06:48 42.76287 -8.47491 9130 ft 263 kts 194°
2026-04-17 06:48 42.74497 -8.48027 8849 ft 262 kts 194°
2026-04-17 06:48 42.72740 -8.48554 8570 ft 261 kts 193°
2026-04-17 06:49 42.70970 -8.49085 8300 ft 259 kts 193°
2026-04-17 06:49 42.69213 -8.49612 8019 ft 258 kts 193°
2026-04-17 06:49 42.67465 -8.50137 7747 ft 257 kts 193°
2026-04-17 06:49 42.65723 -8.50659 7473 ft 255 kts 193°
2026-04-17 06:50 42.63991 -8.51179 7196 ft 255 kts 193°
2026-04-17 06:50 42.62263 -8.51697 6936 ft 254 kts 193°
2026-04-17 06:50 42.60536 -8.52214 6663 ft 254 kts 193°
2026-04-17 06:50 42.58808 -8.52731 6364 ft 254 kts 193°
2026-04-17 06:51 42.57085 -8.53247 6088 ft 253 kts 193°
2026-04-17 06:51 42.55369 -8.53761 5827 ft 252 kts 193°
2026-04-17 06:51 42.53703 -8.54258 5722 ft 245 kts 192°
2026-04-17 06:51 42.52056 -8.54749 5595 ft 239 kts 192°
2026-04-17 06:52 42.50454 -8.55227 5487 ft 232 kts 192°
2026-04-17 06:52 42.48900 -8.55663 5382 ft 224 kts 192°
2026-04-17 06:52 42.47394 -8.56073 5273 ft 218 kts 191°
2026-04-17 06:52 42.45893 -8.56482 5031 ft 219 kts 191°
2026-04-17 06:53 42.44393 -8.56891 4794 ft 219 kts 191°
2026-04-17 06:53 42.42913 -8.57295 4558 ft 220 kts 191°
2026-04-17 06:53 42.41410 -8.57706 4301 ft 219 kts 191°
2026-04-17 06:53 42.39917 -8.58115 4066 ft 219 kts 191°
2026-04-17 06:54 42.38421 -8.58526 3821 ft 219 kts 191°
2026-04-17 06:54 42.36928 -8.58935 3644 ft 219 kts 191°
2026-04-17 06:54 42.35429 -8.59344 3608 ft 220 kts 191°
2026-04-17 06:54 42.33948 -8.59749 3590 ft 219 kts 191°
2026-04-17 06:55 42.32456 -8.60155 3581 ft 218 kts 191°
2026-04-17 06:55 42.30963 -8.60562 3587 ft 218 kts 191°
2026-04-17 06:55 42.29470 -8.60969 3575 ft 220 kts 191°
2026-04-17 06:55 42.27969 -8.61378 3583 ft 220 kts 191°
2026-04-17 06:56 42.26974 -8.61649 3582 ft 220 kts 191°
2026-04-17 06:56 42.25467 -8.62058 3582 ft 220 kts 191°
2026-04-17 06:56 42.23966 -8.62467 3588 ft 220 kts 191°
2026-04-17 06:56 42.22467 -8.62872 3573 ft 219 kts 191°
2026-04-17 06:57 42.20974 -8.63277 3572 ft 218 kts 191°
2026-04-17 06:57 42.19003 -8.63812 3583 ft 218 kts 191°
2026-04-17 06:57 42.17998 -8.64085 3584 ft 219 kts 191°
2026-04-17 06:57 42.16501 -8.64490 3596 ft 219 kts 191°
2026-04-17 06:58 42.15000 -8.64896 3589 ft 220 kts 191°
2026-04-17 06:58 42.13515 -8.65298 3590 ft 221 kts 191°
2026-04-17 06:58 42.12007 -8.65707 3589 ft 221 kts 191°
2026-04-17 06:58 42.10497 -8.66118 3584 ft 221 kts 191°
2026-04-17 06:59 42.08989 -8.66527 3575 ft 220 kts 191°
2026-04-17 06:59 42.07486 -8.66932 3577 ft 220 kts 191°
2026-04-17 06:59 42.05981 -8.67314 3573 ft 220 kts 185°
2026-04-17 06:59 42.04537 -8.66831 3585 ft 217 kts 143°
2026-04-17 07:00 42.03712 -8.65201 3569 ft 211 kts 101°
2026-04-17 07:00 42.03910 -8.63344 3594 ft 197 kts 65°
2026-04-17 07:00 42.04513 -8.61695 3583 ft 195 kts 65°
2026-04-17 07:00 42.05111 -8.60070 3572 ft 192 kts 65°
2026-04-17 07:01 42.05702 -8.58478 3587 ft 192 kts 65°
2026-04-17 07:01 42.06302 -8.56872 3580 ft 192 kts 65°
2026-04-17 07:01 42.06905 -8.55256 3583 ft 193 kts 65°
2026-04-17 07:01 42.07549 -8.53673 3564 ft 194 kts 50°
2026-04-17 07:02 42.08696 -8.52810 3614 ft 192 kts 14°
2026-04-17 07:02 42.10023 -8.52353 3600 ft 199 kts 15°
2026-04-17 07:02 42.11358 -8.51887 3597 ft 197 kts 15°
2026-04-17 07:02 42.12662 -8.51433 3589 ft 193 kts 15°
2026-04-17 07:03 42.13941 -8.50987 3575 ft 187 kts 15°
2026-04-17 07:03 42.15196 -8.50550 3577 ft 186 kts 15°
2026-04-17 07:03 42.16449 -8.50113 3681 ft 185 kts 15°
2026-04-17 07:03 42.17716 -8.49678 3858 ft 190 kts 12°
2026-04-17 07:04 42.19028 -8.49345 4007 ft 192 kts 10°
2026-04-17 07:04 42.20348 -8.49035 4149 ft 192 kts 10°
2026-04-17 07:04 42.21670 -8.48727 4279 ft 192 kts 10°
2026-04-17 07:04 42.22989 -8.48418 4396 ft 195 kts 10°
2026-04-17 07:05 42.24336 -8.48101 4394 ft 198 kts 10°
2026-04-17 07:05 42.25686 -8.47784 4379 ft 195 kts 10°
2026-04-17 07:05 42.27014 -8.47472 4397 ft 194 kts 10°
2026-04-17 07:05 42.28350 -8.47159 4405 ft 196 kts 10°
2026-04-17 07:06 42.29681 -8.46844 4405 ft 197 kts 10°
2026-04-17 07:06 42.31037 -8.46525 4394 ft 197 kts 10°
2026-04-17 07:06 42.32386 -8.46207 4390 ft 197 kts 10°
2026-04-17 07:06 42.33734 -8.45891 4389 ft 196 kts 10°
2026-04-17 07:07 42.35078 -8.45575 4388 ft 195 kts 10°
2026-04-17 07:07 42.36412 -8.45263 4398 ft 194 kts
2026-04-17 07:07 42.37740 -8.44952 4395 ft 194 kts 10°
2026-04-17 07:07 42.39068 -8.44643 4382 ft 193 kts
2026-04-17 07:08 42.40372 -8.44862 4377 ft 200 kts 326°
2026-04-17 07:08 42.41464 -8.46215 4427 ft 229 kts 314°
2026-04-17 07:08 42.42736 -8.47710 4354 ft 249 kts 320°
2026-04-17 07:08 42.44107 -8.49135 4297 ft 252 kts 320°
2026-04-17 07:09 42.45164 -8.50937 4276 ft 238 kts 291°
2026-04-17 07:09 42.45425 -8.53015 4287 ft 215 kts 263°
2026-04-17 07:09 42.45018 -8.54871 4282 ft 204 kts 238°
2026-04-17 07:09 42.44125 -8.56318 4320 ft 198 kts 218°
2026-04-17 07:10 42.42973 -8.57229 4252 ft 190 kts 198°
2026-04-17 07:10 42.41721 -8.57656 4165 ft 181 kts 191°
2026-04-17 07:10 42.40464 -8.57994 3969 ft 186 kts 191°
2026-04-17 07:10 42.39210 -8.58327 3818 ft 178 kts 191°
2026-04-17 07:11 42.38021 -8.58647 3590 ft 170 kts 191°
2026-04-17 07:11 42.36881 -8.58957 3368 ft 165 kts 191°
2026-04-17 07:11 42.35752 -8.59264 3160 ft 166 kts 191°
2026-04-17 07:11 42.34621 -8.59571 2941 ft 168 kts 191°
2026-04-17 07:12 42.33505 -8.59875 2710 ft 162 kts 191°
2026-04-17 07:12 42.32419 -8.60170 2499 ft 156 kts 191°
2026-04-17 07:12 42.31385 -8.60451 2291 ft 148 kts 191°
2026-04-17 07:12 42.30409 -8.60717 2121 ft 142 kts 191°
2026-04-17 07:13 42.29439 -8.60981 1927 ft 143 kts 191°
2026-04-17 07:13 42.28455 -8.61248 1729 ft 144 kts 192°
2026-04-17 07:13 42.27492 -8.61510 1532 ft 141 kts 192°
2026-04-17 07:13 42.26552 -8.61754 1413 ft 134 kts 191°
2026-04-17 07:14 42.25651 -8.61990 1203 ft 130 kts 193°
2026-04-17 07:14 42.24761 -8.62246 992 ft 130 kts 192°
2026-04-17 07:14 42.23908 -8.62484 838 ft 119 kts 191°
2026-04-17 07:14 42.23280 -8.62656 843 ft 62 kts 192°
2026-04-17 07:15 42.23044 -8.62721 844 ft 17 kts 192°
2026-04-17 07:15 42.22932 -8.62769 835 ft 17 kts 202°
2026-04-17 07:15 42.22834 -8.62842 842 ft 13 kts 217°
2026-04-17 07:15 42.22818 -8.62859 842 ft 0 kts 218°
2026-04-17 07:16 42.22814 -8.62864 837 ft 5 kts 218°
2026-04-17 07:16 42.22771 -8.62909 839 ft 11 kts 218°
2026-04-17 07:16 42.22709 -8.62976 842 ft 11 kts 219°
2026-04-17 07:16 42.22647 -8.63038 839 ft 8 kts 204°
2026-04-17 07:17 42.22616 -8.63052 841 ft 4 kts 213°
2026-04-17 07:17 42.22610 -8.63092 842 ft 5 kts 276°
2026-04-17 07:17 42.22616 -8.63135 834 ft 1 kts 281°
2026-04-17 07:18 42.22616 -8.63139 835 ft 1 kts 280°
2026-04-17 07:18 42.22617 -8.63144 836 ft 0 kts 281°